Regional Weather Roundup
Issued by NWS

Home | Current Version | Previous Version | Graphics & Text | Print | Product List | Glossary On
Versions: 1 2 3 4 5 6 7 8 9 10 11 12 13 14 15 16 17 18 19 20 21 22 23 24 25 26 27 28 29 30 31 32 33 34 35 36 37 38 39 40 41 42 43 44 45 46 47 48 49 50
629
ASUS45 KPSR 221810
RWRAZ

ARIZONA HOURLY REGIONAL WEATHER ROUNDUP
NATIONAL WEATHER SERVICE PHOENIX AZ
1100 AM MST SUN APR 22 2018

NOTE: FAIR INDICATES FEW OR NO CLOUDS BELOW 12,000 FEET WITH NO
SIGNIFICANT WEATHER AND/OR OBSTRUCTIONS TO VISIBILITY.

AZZ001>003-036-221900-
NORTHWEST ARIZONA

CITY           SKY/WX    TMP DP  RH WIND       PRES   REMARKS
BULLHEAD CITY  SUNNY     82  23  11 CALM      29.90F
KINGMAN        MOSUNNY   76  23  14 MISG      30.03F
6HR MIN TEMP:  50; 6HR MAX TEMP:  79;

$$

AZZ004>008-015-016-018-221900-
NORTH CENTRAL ARIZONA

CITY           SKY/WX    TMP DP  RH WIND       PRES   REMARKS
GRAND CANYON   SUNNY     66  16  14 E8G23     30.19F
6HR MIN TEMP:  28; 6HR MAX TEMP:  67;

WILLIAMS       SUNNY     66  12  12 VRB5G13   30.17F
PRESCOTT       MOSUNNY   75  23  14 N6        30.10F
6HR MIN TEMP:  41; 6HR MAX TEMP:  75;

FLAGSTAFF      MOSUNNY   63  16  16 NE6G17    30.21F
6HR MIN TEMP:  27; 6HR MAX TEMP:  63;

PAYSON         SUNNY     73  16  11 VRB6G14   30.10F
PAGE           MOSUNNY   66  30  26 VRB5      30.11F
6HR MIN TEMP:  51; 6HR MAX TEMP:  67;

$$

AZZ009>014-017-221900-
NORTHEAST ARIZONA

CITY           SKY/WX    TMP DP  RH WIND       PRES   REMARKS
WINSLOW        SUNNY     68  30  24 SE6       30.14F
6HR MIN TEMP:  33; 6HR MAX TEMP:  68;

SAINT JOHNS    MOSUNNY   68  29  23 N5        30.14F
6HR MIN TEMP:  34; 6HR MAX TEMP:  68;

WINDOW ROCK    MOSUNNY   64  19  17 VRB3      30.20F
6HR MIN TEMP:  24; 6HR MAX TEMP:  65;

SHOW LOW       MOSUNNY   66  25  20 NW10      30.18F
$$

AZZ540-542>544-546-548-221900-
GREATER PHOENIX AREA

CITY           SKY/WX    TMP DP  RH WIND       PRES   REMARKS
PHOENIX        MOSUNNY   85  31  14 VRB3      29.90F
6HR MIN TEMP:  63; 6HR MAX TEMP:  87;

BUCKEYE        SUNNY     84  34  16 SE8       29.92S
DEER VALLEY    SUNNY     84  27  12 VRB5      29.91F
6HR MIN TEMP:  62; 6HR MAX TEMP:  84;

SCOTTSDALE     SUNNY     84  32  15 S6        29.93F
6HR MIN TEMP:  60; 6HR MAX TEMP:  84;

MESA-GATEWAY   MOSUNNY   82  34  17 VRB5      29.94F
CHANDLER       MOSUNNY   82  32  16 VRB5      29.92F
$$

AZZ539-553-221900-
SOUTHWEST MARICOPA COUNTY AND PINAL COUNTY

CITY           SKY/WX    TMP DP  RH WIND       PRES   REMARKS
CASA GRANDE    SUNNY     82  31  15 CALM      29.94F
6HR MIN TEMP:  56; 6HR MAX TEMP:  82;

$$

AZZ503-504-507>509-221900-
SOUTHEAST ARIZONA

CITY           SKY/WX    TMP DP  RH WIND       PRES   REMARKS
TUCSON         SUNNY     83  21  10 S7        29.98F
6HR MIN TEMP:  58; 6HR MAX TEMP:  84;

DAVIS-MONTHAN  SUNNY     85  24  11 W6        29.97F
6HR MIN TEMP:  55; 6HR MAX TEMP:  85;

RYAN FIELD     SUNNY     82  27  13 CALM      29.98F
NOGALES        MOSUNNY   82  12   7 VRB3      30.04F
6HR MIN TEMP:  51; 6HR MAX TEMP:  82;

SIERRA VISTA   MOSUNNY   77  14   9 E9        30.08
6HR MIN TEMP:  54; 6HR MAX TEMP:  80;

DOUGLAS        SUNNY     78  24  13 VRB5      30.06F
6HR MIN TEMP:  51; 6HR MAX TEMP:  78; 6HR PCP: TRACE;

SAFFORD        MOSUNNY   78  25  14 S9        30.01F
6HR MIN TEMP:  53; 6HR MAX TEMP:  78;

$$

AZZ532-221900-
SOUTHWEST ARIZONA

CITY           SKY/WX    TMP DP  RH WIND       PRES   REMARKS
YUMA           SUNNY     86  33  15 CALM      29.88F
6HR MIN TEMP:  61; 6HR MAX TEMP:  86;

$$

CAZ041-043-047-048-061-525>527-560>570-221900-
SOUTHERN CALIFORNIA

CITY           SKY/WX    TMP DP  RH WIND       PRES   REMARKS
DOWNTOWN L.A.  SUNNY     78  52  40 CALM      29.93S
6HR MIN TEMP:  57; 6HR MAX TEMP:  78;

L.A. AIRPORT   MOSUNNY   68  54  60 W9        29.95S
6HR MIN TEMP:  56; 6HR MAX TEMP:  70;

SAN DIEGO      MOSUNNY   71  55  56 NW7       29.96F
6HR MIN TEMP:  57; 6HR MAX TEMP:  71;

BURBANK        SUNNY     80  44  27 VRB5      29.94S
6HR MIN TEMP:  58; 6HR MAX TEMP:  80;

ONTARIO        MOSUNNY   81  36  19 VRB5      29.94F
6HR MIN TEMP:  56; 6HR MAX TEMP:  81;

RIVERSIDE      MOSUNNY   82  33  17 CALM      29.93F
6HR MIN TEMP:  56; 6HR MAX TEMP:  82;

PALM SPRINGS   SUNNY     92  24   8 VRB3      29.89F
6HR MIN TEMP:  66; 6HR MAX TEMP:  92;

EL CENTRO NAS  SUNNY     90  26  10 MISG      29.88S
6HR MIN TEMP:  61; 6HR MAX TEMP:  90;

IMPERIAL       SUNNY     87  36  16 VRB5      29.86F
6HR MIN TEMP:  61; 6HR MAX TEMP:  87;

BLYTHE         SUNNY     85  28  12 VRB3      29.89F
6HR MIN TEMP:  60; 6HR MAX TEMP:  86;

NEEDLES        SUNNY     86  21   9 CALM      29.91F
6HR MIN TEMP:  67; 6HR MAX TEMP:  86;

$$

NVZ020-UTZ003-221900-
SOUTHERN NEVADA-UTAH

CITY           SKY/WX    TMP DP  RH WIND       PRES   REMARKS
LAS VEGAS      PTSUNNY   80  24  12 VRB3      29.98F
6HR MIN TEMP:  63; 6HR MAX TEMP:  81;

SALT LAKE CITY MOSUNNY   69  29  22 VRB3      30.09F
6HR MIN TEMP:  47; 6HR MAX TEMP:  70;

$$

NMZ009-TXZ055-221900-
NEW MEXICO-WEST TEXAS

CITY           SKY/WX    TMP DP  RH WIND       PRES   REMARKS
ALBUQUERQUE    PTSUNNY   64  28  25 CALM      30.17F
6HR MIN TEMP:  43; 6HR MAX TEMP:  64;

EL PASO        LGT RAIN  65  35  33 S14       30.15S
6HR MIN TEMP:  53; 6HR MAX TEMP:  65; 6HR PCP: TRACE;

$$


........................KEY........................
SKY/WX - SKY CONDITION/WEATHER
TMP    - TEMPERATURE IN FAHRENHEIT
DP     - DEW POINT IN FAHRENHEIT
RH     - RELATIVE HUMIDITY IN PERCENT
WIND   - DIRECTION AND SPEED IN MILES PER HOUR (MPH)
VRB    - VARIABLE WIND DIRECTION
PRES   - MEAN SEA LEVEL PRESSURE IN INCHES OF MERCURY
         F - FALLING PRESSURE   R - RISING PRESSURE
         S - STEADY PRESSURE
VSB    - VISIBILITY IN MILES
HX     - HEAT INDEX IN FAHRENHEIT
WCI    - WIND CHILL INDEX IN FAHRENHEIT
TC     - TEMPERATURE IN CELSIUS WHICH IS ALSO KNOWN AS
         TEMPERATURE IN CENTIGRADE
AFB    - AIR FORCE BASE
         LUKE AFB IS LUKE AIR FORCE BASE
         DAVIS-MONTHAN IS DAVIS-MONTHAN AIR FORCE BASE
NAS    - NAVAL AIR STATION
         EL CENTRO NAS IS EL CENTRO NAVAL AIR STATION
N/A    - NOT AVAILABLE





USA.gov is the U.S. government's official web portal to all federal, state and local government web resources and services.